User: anonymous   Login
Location: Unspecified
(0.0000°N, 0.0000°E)
Time: 14:52:18
(UTC+00:00)
Language:

TABLETSAT AURORA - Orbit

View from above orbital plane
View from above orbital plane
View from above satellite
View from above satellite

Ground track
Ground track

The orbit data is extracted from the following two-line orbital elements,

1 40017U 14033H   17352.19170350  .00000501  00000-0  53692-4 0  9992
2 40017  97.9493 274.4452 0024995  79.5190 280.8843 14.92972007190423
Epoch (UTC): 18 December 2017 04:36:03
Eccentricity: 0.0024995
inclination: 97.9493°
perigee height: 571 km
apogee height: 606 km
right ascension of ascending node: 274.4452°
argument of perigee: 79.5190°
revolutions per day: 14.92972007
mean anomaly at epoch: 280.8843°
orbit number at epoch: 19042

The dashed part of the orbit path shows where the satellite is in the earth's shadow,  

DLR